loading
|

SL-8 DEB, 2334

Orbit data source: Space-Track

SL-8 DEB, 2334 is space debris in LEO originally from a launch on Mon, 15 Mar 1965 UTC launched from the Tyuratam Missile And Space Complex (TTMTR). Debris objects in space refer to the collection of defunct objects orbiting the Earth. Examples of debris include non-operational satellites, rocket bodies, and fragments generated from explosions, collisions, or faulty payload assembly.

Loading next visibility...
Loading greatness...
SL-8 DEB details
Identifier
2334, 1965-020EH
Orbit
LEO
Last TLE update14 hours ago
Origin
Flag of CISRVSN (CIS)
ManufacturerUnknown
MissionSpacecraft
Bus & MotorUnknown bus, Unknown motor
MassUnknown
Launch date (UTC)
1965-03-15 (60 years ago)
Launch vehicleUnknown
Launch site
Tyuratam Missile And Space Complex (TTMTR)
Object type
Payload
Rocket body
Debris
Shape & HBRUnknown
Radar Cross SectionSmall (<0.1 m²)

Expand to show TLE details & history

TLE from 14 hours ago
0 SL-8 DEB
1 02334U 65020EH  24278.44401222  .00004251  00000-0  51764-2 0  9994
2 02334  55.6715  70.2487 0588955 102.5985 264.1436 13.11214306769483
Epoch: 2024-10-04T10:39Z
Definitive object data (Epoch: 2024-10-04T10:39:22.655Z)
Latitude-0.00004°
Longitude-103.21032°
Altitude1,290.965 km
Speed7.178 km/s
True Right ascension04h 40m 59s
True Declination0° 00' 00"
Sunlit
Object was in daylight at TLE epoch
Predictive object data (real-time)
Latitude-26.4454°
Longitude94.7765°
Altitude1,347.167 km
Speed7.127 km/s
Apparent Right ascension16h 40m 10s
Apparent Declination-73° 47' 31"
Sunlit
Object is in daylight
Predictive observer data (real-time)
Local Sidereal Time18:24:51
Azimuth187.814° SSW
Elevation-25.089°
Doppler factor1
Orbital elements
Apogee1,665.734 km
Perigee770.938 km
Semi-major axis7,596.473 km
Eccentricity0.0588955
Inclination55.6715°
RAAN70.2487°
Arg. of periapsis102.5985°
True anomaly257.49491°
Mean anomaly264.1436°
Eccentric anomaly260.81243°
Mean motion3.27812 °/min
BSTAR0.0051764
Period109.82 mins
No data available

SL-8 DEB Visibility forecast

Observer location: 39.9160978°, -105.1181434

SL-8 DEB is not visible in the next 10 days
Span
Click to sort rows by Start time (UTC) header in descending order
Start Az.
Max El. time (UTC)
Max El. Az.
Max El.
End time (UTC)
End Az.